• In Netherlands
  • List of Countries
  • For 7 days
  • Water Temperature
  • Satellite Maps
  • Weather Map
  • Weather Widgets
  • user-avatar
    Login

    Hourly Weather Benguela

    Today, 24 March, Friday

    Time Temperature Precipitation Wind Pressure Humidity
    00:00 +29°C° 1.6 mm 1 mps 760 mmHg 94%
    01:00 +29°C° 1.6 mm 1 mps 760 mmHg 94%
    02:00 +28°C° 1.2 mm 1 mps 760 mmHg 94%
    03:00 +28°C° 1.2 mm 1 mps 759 mmHg 93%
    04:00 +28°C° 1.2 mm 1 mps 759 mmHg 93%
    05:00 +28°C° 1.1 mm 1 mps 759 mmHg 92%
    06:00 +28°C° 1.1 mm 2 mps 759 mmHg 92%
    07:00 +28°C° 1.1 mm 2 mps 759 mmHg 91%
    08:00 +29°C° 0.2 mm 2 mps 759 mmHg 84%
    09:00 +30°C° 0.2 mm 2 mps 760 mmHg 77%
    10:00 +31°C° 0.2 mm 1 mps 760 mmHg 71%
    11:00 +32°C° 0.2 mm 2 mps 759 mmHg 65%
    12:00 +35°C° 0.2 mm 3 mps 758 mmHg 59%
    13:00 +36°C° 0.2 mm 4 mps 758 mmHg 54%
    14:00 +35°C° 0.9 mm 4 mps 757 mmHg 60%
    15:00 +35°C° 0.9 mm 5 mps 757 mmHg 66%
    16:00 +34°C° 0.9 mm 5 mps 757 mmHg 72%
    17:00 +32°C° 0.8 mm 4 mps 757 mmHg 78%
    18:00 +30°C° 0.8 mm 4 mps 758 mmHg 84%
    19:00 +29°C° 0.8 mm 3 mps 759 mmHg 89%
    20:00 +29°C° 2.2 mm 3 mps 759 mmHg 91%
    21:00 +29°C° 2.2 mm 3 mps 760 mmHg 92%
    22:00 +29°C° 2.2 mm 3 mps 760 mmHg 93%
    23:00 +28°C° 2.8 mm 3 mps 760 mmHg 93%

    Tomorrow, 25 March, Saturday

    Time Temperature Precipitation Wind Pressure Humidity
    00:00 +28°C° 2.8 mm 3 mps 760 mmHg 93%
    01:00 +28°C° 2.8 mm 3 mps 759 mmHg 93%
    02:00 +28°C° 1.9 mm 3 mps 759 mmHg 93%
    03:00 +28°C° 1.9 mm 3 mps 759 mmHg 93%
    04:00 +28°C° 1.9 mm 3 mps 758 mmHg 92%
    05:00 +28°C° 1.1 mm 3 mps 758 mmHg 92%
    06:00 +28°C° 1.1 mm 3 mps 759 mmHg 91%
    07:00 +28°C° 1.1 mm 3 mps 759 mmHg 91%
    08:00 +29°C° 0.1 mm 3 mps 759 mmHg 83%
    09:00 +31°C° 0.1 mm 3 mps 759 mmHg 76%
    10:00 +33°C° 0.1 mm 3 mps 759 mmHg 69%
    11:00 +34°C° 0.2 mm 3 mps 759 mmHg 64%
    12:00 +36°C° 0.2 mm 4 mps 758 mmHg 58%
    13:00 +37°C° 0.2 mm 4 mps 757 mmHg 53%
    14:00 +36°C° 0.5 mm 5 mps 757 mmHg 56%
    15:00 +36°C° 0.5 mm 5 mps 756 mmHg 60%
    16:00 +35°C° 0.5 mm 6 mps 756 mmHg 63%
    17:00 +34°C° 0.4 mm 5 mps 756 mmHg 70%
    18:00 +32°C° 0.4 mm 4 mps 757 mmHg 78%
    19:00 +29°C° 0.4 mm 4 mps 757 mmHg 85%
    20:00 +29°C° 0.1 mm 3 mps 758 mmHg 87%
    21:00 +29°C° 0.1 mm 3 mps 758 mmHg 88%
    22:00 +29°C° 0.1 mm 2 mps 759 mmHg 89%
    23:00 +29°C° 0 mm 2 mps 758 mmHg 89%

    Day after tomorrow, 26 March, Sunday

    Time Temperature Precipitation Wind Pressure Humidity
    00:00 +29°C° 0 mm 2 mps 758 mmHg 89%
    01:00 +29°C° 0 mm 2 mps 758 mmHg 89%
    02:00 +29°C° 0 mm 2 mps 758 mmHg 89%
    03:00 +29°C° 0 mm 2 mps 757 mmHg 89%
    04:00 +29°C° 0 mm 2 mps 757 mmHg 88%
    05:00 +29°C° 0.1 mm 2 mps 757 mmHg 87%
    06:00 +29°C° 0.1 mm 1 mps 758 mmHg 85%
    07:00 +30°C° 0.1 mm 1 mps 758 mmHg 84%
    08:00 +31°C° 0.1 mm 1 mps 758 mmHg 77%
    09:00 +32°C° 0.1 mm 1 mps 758 mmHg 71%
    10:00 +34°C° 0.1 mm 1 mps 758 mmHg 65%
    11:00 +36°C° 0.5 mm 2 mps 758 mmHg 63%
    12:00 +36°C° 0.5 mm 3 mps 757 mmHg 61%
    13:00 +37°C° 0.5 mm 4 mps 756 mmHg 58%
    14:00 +36°C° 0.6 mm 4 mps 756 mmHg 62%
    15:00 +36°C° 0.6 mm 4 mps 755 mmHg 66%
    16:00 +35°C° 0.6 mm 4 mps 755 mmHg 70%
    17:00 +34°C° 1 mm 4 mps 755 mmHg 75%
    18:00 +33°C° 1 mm 3 mps 756 mmHg 81%
    19:00 +30°C° 1 mm 2 mps 757 mmHg 87%
    20:00 +30°C° 0.4 mm 2 mps 757 mmHg 87%
    21:00 +30°C° 0.4 mm 1 mps 758 mmHg 87%
    22:00 +30°C° 0.4 mm 1 mps 758 mmHg 88%
    23:00 +30°C° 0.1 mm 1 mps 758 mmHg 88%

    27 March, Monday

    Time Temperature Precipitation Wind Pressure Humidity
    00:00 +29°C° 0.1 mm 1 mps 757 mmHg 89%
    01:00 +29°C° 0.1 mm 1 mps 757 mmHg 89%
    02:00 +29°C° 0.1 mm 1 mps 757 mmHg 89%
    03:00 +29°C° 0.1 mm 1 mps 757 mmHg 90%
    04:00 +29°C° 0.1 mm 1 mps 756 mmHg 90%
    05:00 +29°C° 0 mm 1 mps 757 mmHg 88%
    06:00 +29°C° 0 mm 1 mps 757 mmHg 85%
    07:00 +30°C° 0 mm 1 mps 758 mmHg 83%
    08:00 +31°C° 0.2 mm 1 mps 758 mmHg 76%
    09:00 +33°C° 0.2 mm 1 mps 758 mmHg 68%
    10:00 +35°C° 0.2 mm 2 mps 758 mmHg 61%
    11:00 +36°C° 0.4 mm 2 mps 757 mmHg 58%
    12:00 +37°C° 0.4 mm 3 mps 757 mmHg 56%
    13:00 +38°C° 0.4 mm 3 mps 756 mmHg 53%
    14:00 +37°C° 0.2 mm 4 mps 755 mmHg 56%
    15:00 +37°C° 0.2 mm 4 mps 755 mmHg 59%
    16:00 +37°C° 0.2 mm 4 mps 755 mmHg 61%
    17:00 +35°C° 0.4 mm 4 mps 755 mmHg 69%
    18:00 +34°C° 0.4 mm 3 mps 756 mmHg 77%
    19:00 +31°C° 0.4 mm 3 mps 756 mmHg 84%
    20:00 +31°C° 0.2 mm 2 mps 757 mmHg 85%
    21:00 +30°C° 0.2 mm 2 mps 757 mmHg 86%
    22:00 +30°C° 0.2 mm 2 mps 758 mmHg 86%
    23:00 +30°C° 0.1 mm 2 mps 757 mmHg 86%

    28 March, Tuesday

    Time Temperature Precipitation Wind Pressure Humidity
    00:00 +30°C° 0.1 mm 2 mps 757 mmHg 86%
    01:00 +29°C° 0.1 mm 2 mps 757 mmHg 85%
    02:00 +29°C° 0 mm 1 mps 757 mmHg 85%
    03:00 +29°C° 0 mm 1 mps 757 mmHg 84%
    04:00 +29°C° 0 mm 1 mps 757 mmHg 84%
    05:00 +29°C° 0 mm 1 mps 757 mmHg 82%
    06:00 +30°C° 0 mm 1 mps 757 mmHg 80%
    07:00 +30°C° 0 mm 1 mps 758 mmHg 79%
    08:00 +32°C° 0 mm 1 mps 758 mmHg 69%
    09:00 +34°C° 0 mm 1 mps 757 mmHg 60%
    10:00 +36°C° 0 mm 1 mps 757 mmHg 50%
    11:00 +38°C° 0.1 mm 2 mps 757 mmHg 48%
    12:00 +39°C° 0.1 mm 3 mps 756 mmHg 45%
    13:00 +41°C° 0.1 mm 4 mps 755 mmHg 42%
    14:00 +40°C° 0.1 mm 4 mps 755 mmHg 46%
    15:00 +40°C° 0.1 mm 5 mps 755 mmHg 49%
    16:00 +39°C° 0.1 mm 5 mps 754 mmHg 52%
    17:00 +36°C° 0.1 mm 4 mps 755 mmHg 61%
    18:00 +34°C° 0.1 mm 4 mps 755 mmHg 69%
    19:00 +31°C° 0.1 mm 3 mps 756 mmHg 77%
    20:00 +31°C° 0.1 mm 2 mps 756 mmHg 79%
    21:00 +31°C° 0.1 mm 2 mps 757 mmHg 81%
    22:00 +30°C° 0.1 mm 2 mps 757 mmHg 83%
    23:00 +30°C° 0.2 mm 2 mps 757 mmHg 83%

    29 March, Wednesday

    Time Temperature Precipitation Wind Pressure Humidity
    00:00 +30°C° 0.2 mm 2 mps 757 mmHg 83%
    01:00 +30°C° 0.2 mm 1 mps 757 mmHg 83%
    02:00 +30°C° 0.1 mm 1 mps 756 mmHg 82%
    03:00 +30°C° 0.1 mm 2 mps 756 mmHg 81%
    04:00 +29°C° 0.1 mm 2 mps 756 mmHg 80%
    05:00 +30°C° 0 mm 2 mps 756 mmHg 76%
    06:00 +30°C° 0 mm 1 mps 757 mmHg 73%
    07:00 +30°C° 0 mm 1 mps 757 mmHg 69%
    08:00 +34°C° 0 mm 2 mps 757 mmHg 60%
    09:00 +36°C° 0 mm 2 mps 757 mmHg 50%
    10:00 +38°C° 0 mm 2 mps 757 mmHg 40%
    11:00 +39°C° 0 mm 3 mps 757 mmHg 39%
    12:00 +39°C° 0 mm 3 mps 756 mmHg 38%
    13:00 +41°C° 0 mm 4 mps 755 mmHg 36%
    14:00 +40°C° 0 mm 4 mps 755 mmHg 40%
    15:00 +40°C° 0 mm 5 mps 754 mmHg 43%
    16:00 +39°C° 0 mm 5 mps 754 mmHg 47%
    17:00 +36°C° 0 mm 4 mps 754 mmHg 55%
    18:00 +35°C° 0 mm 3 mps 755 mmHg 63%
    19:00 +33°C° 0 mm 3 mps 755 mmHg 72%
    20:00 +32°C° 0.1 mm 2 mps 756 mmHg 73%
    21:00 +31°C° 0.1 mm 2 mps 756 mmHg 75%
    22:00 +31°C° 0.1 mm 1 mps 757 mmHg 77%
    23:00 +31°C° 0.1 mm 1 mps 757 mmHg 78%
    Show more